Home   Weather   Denali   Past weeks
Flag for USA

Past Weather in Denali, Alaska, USA — Yesterday and Last 2 Weeks

Now
66 °F

Mostly cloudy.


Feels Like: 66 °F
Forecast: 70 / 53 °F
Wind: 9 mph from South

Location: Wainwright U. S. Army Airfield

Current Time: Jul 20, 2019 at 2:19:31 pm

Latest Report: Jul 20, 2019 at 12:58 pm


Visibility: 9 mi

Pressure: 30.02 "Hg

Humidity: 65%

Dew Point: 54 °F

Location of DenaliLocation

Past Weather in Denali — Graph

°F

Denali Temperature Yesterday

Maximum temperature yesterday: 69 °F (at 6:58 pm)
Minimum temperature yesterday: 59 °F (at 4:58 am)
Average temperature yesterday: 65 °F

High & Low Weather Summary for the Past Weeks

 TemperatureHumidityPressure
High86 °F (Jul 9, 4:58 pm)100% (Jul 11, 3:42 am)30.31 "Hg (Jul 11, 3:42 am)
Low50 °F (Jul 17, 6:07 am)24% (Jul 9, 2:58 pm)29.60 "Hg (Jul 16, 8:58 pm)
Average67 °F67%29.87 "Hg
* Reported Jul 5 12:58 pm — Jul 20 12:58 pm, Denali. Weather by CustomWeather, © 2019

Note: Actual official high and low records may vary slightly from our data, if they occured in-between our weather recording intervals... More about our weather records

Advertising

Denali Weather History for the Previous 24 Hours

Scroll right to see more
 ConditionsComfort  
Time TempWeatherWind HumidityBarometerVisibility
12:58 pm
Sat, Jul 20
66 °FMostly cloudy.9 mph65%30.02 "Hg9 mi
11:58 am63 °FMostly cloudy.5 mph73%30.03 "Hg9 mi
10:58 am61 °FMostly cloudy.No wind75%30.03 "Hg10 mi
9:58 am60 °FOvercast.3 mph77%30.03 "Hg9 mi
8:58 am58 °FOvercast.3 mph81%30.03 "Hg9 mi
7:58 am56 °FMostly cloudy.5 mph87%30.03 "Hg8 mi
6:58 am53 °FOvercast.6 mph91%30.03 "Hg10 mi
5:58 am52 °FMostly cloudy.5 mph92%30.03 "Hg10 mi
4:58 am53 °FOvercast.7 mph92%30.03 "Hg9 mi
3:58 am51 °FClear.3 mph96%30.03 "Hg8 mi
2:58 am51 °FClear.5 mph94%30.03 "Hg10 mi
1:58 am55 °FClear.No wind90%30.02 "Hg10 mi
12:58 am57 °FClear.No wind84%30.01 "Hg10 mi
11:58 pm
Fri, Jul 19
64 °FClear.8 mph68%29.99 "Hg10 mi
10:58 pm66 °FOvercast.6 mph61%29.98 "Hg10 mi
9:58 pm67 °FMostly cloudy.7 mph56%29.98 "Hg10 mi
8:58 pm67 °FOvercast.9 mph54%29.97 "Hg9 mi
7:58 pm69 °FBroken clouds.9 mph52%29.96 "Hg10 mi
6:58 pm69 °FMore clouds than sun.10 mph49%29.95 "Hg8 mi
5:58 pm69 °FMostly cloudy.10 mph48%29.96 "Hg9 mi
4:58 pm69 °FMostly cloudy.9 mph48%29.96 "Hg10 mi
3:58 pm69 °FOvercast.9 mph49%29.96 "Hg9 mi
2:58 pm67 °FOvercast.9 mph54%29.96 "Hg9 mi
Weather by CustomWeather, © 2019

See weather overview